| time (UTC) | temp F | wind direction | speed knots | gust knots | rain 1hr in | rain 24hr in | rain mn in | humidity % | barometer mb |
| 20260506185035 | 55 | 331 | 6.1 | 10.4 | 0.00 | 0.01 | 0.01 | 87 | 1012.5 |
| 20260506184536 | 55 | 316 | 5.2 | 8.7 | 0.00 | 0.01 | 0.01 | 87 | 1012.5 |
| 20260506184035 | 55 | 312 | 4.3 | 8.7 | 0.00 | 0.01 | 0.01 | 87 | 1012.5 |
| 20260506183535 | 55 | 356 | 3.5 | 5.2 | 0.00 | 0.01 | 0.01 | 87 | 1012.4 |
| 20260506183035 | 55 | 326 | 5.2 | 8.7 | 0.00 | 0.01 | 0.01 | 87 | 1012.4 |
| 20260506182536 | 55 | 311 | 4.3 | 7.0 | 0.00 | 0.01 | 0.01 | 87 | 1012.3 |
| 20260506182035 | 56 | 356 | 2.6 | 8.7 | 0.00 | 0.01 | 0.01 | 87 | 1012.3 |
| 20260506181535 | 56 | 335 | 2.6 | 7.0 | 0.00 | 0.01 | 0.01 | 87 | 1012.3 |
| 20260506181036 | 56 | 329 | 7.0 | 10.4 | 0.00 | 0.01 | 0.01 | 87 | 1012.2 |
| 20260506180535 | 56 | 349 | 9.6 | 15.6 | 0.00 | 0.01 | 0.01 | 87 | 1012.1 |
| 20260506180036 | 56 | 326 | 7.0 | 13.9 | 0.00 | 0.01 | 0.01 | 87 | 1012.2 |
| 20260506175537 | 56 | 338 | 5.2 | 12.2 | 0.00 | 0.01 | 0.01 | 87 | 1012.1 |
| 20260506175037 | 57 | 351 | 5.2 | 10.4 | 0.00 | 0.01 | 0.01 | 87 | 1012.0 |
| 20260506174537 | 57 | 335 | 7.0 | 12.2 | 0.00 | 0.01 | 0.01 | 87 | 1011.8 |
| 20260506174035 | 57 | 340 | 7.8 | 12.2 | 0.00 | 0.01 | 0.01 | 87 | 1011.7 |
| 20260506173536 | 58 | 353 | 8.7 | 13.9 | 0.00 | 0.01 | 0.01 | 86 | 1011.7 |
| 20260506173035 | 58 | 331 | 5.2 | 8.7 | 0.00 | 0.01 | 0.01 | 86 | 1011.6 |
| 20260506172535 | 59 | 347 | 11.3 | 17.4 | 0.00 | 0.01 | 0.01 | 87 | 1011.5 |
| 20260506172035 | 59 | 355 | 7.8 | 13.9 | 0.00 | 0.01 | 0.01 | 87 | 1011.4 |
| 20260506171536 | 60 | 328 | 7.0 | 12.2 | 0.00 | 0.01 | 0.01 | 87 | 1011.3 |
| 20260506171030 | 60 | 11 | 7.8 | 12.2 | 0.00 | 0.01 | 0.01 | 87 | 1011.2 |
| 20260506170536 | 60 | 338 | 16.5 | 26.1 | 0.00 | 0.01 | 0.01 | 87 | 1011.2 |
| 20260506170035 | 60 | 342 | 7.8 | 12.2 | 0.00 | 0.01 | 0.01 | 87 | 1011.2 |
| 20260506165536 | 60 | 350 | 9.6 | 17.4 | 0.00 | 0.01 | 0.01 | 87 | 1011.2 |
| 20260506165035 | 60 | 2 | 13.9 | 22.6 | 0.00 | 0.01 | 0.01 | 87 | 1011.1 |
| 20260506164535 | 60 | 7 | 10.4 | 15.6 | 0.00 | 0.01 | 0.01 | 87 | 1011.1 |
| 20260506164036 | 60 | 350 | 10.4 | 17.4 | 0.00 | 0.01 | 0.01 | 87 | 1011.1 |
| 20260506163535 | 60 | 350 | 11.3 | 22.6 | 0.00 | 0.01 | 0.01 | 87 | 1011.2 |
| 20260506163035 | 60 | 14 | 13.9 | 26.1 | 0.00 | 0.01 | 0.01 | 87 | 1011.2 |
| 20260506162535 | 61 | 13 | 6.1 | 10.4 | 0.00 | 0.01 | 0.01 | 87 | 1011.1 |
| 20260506162035 | 61 | 345 | 10.4 | 17.4 | 0.00 | 0.01 | 0.01 | 87 | 1011.1 |
| 20260506161529 | 61 | 0 | 14.8 | 22.6 | 0.00 | 0.01 | 0.01 | 87 | 1011.2 |
| 20260506161035 | 61 | 359 | 16.5 | 24.3 | 0.00 | 0.01 | 0.01 | 87 | 1011.1 |
| 20260506160536 | 62 | 3 | 12.2 | 17.4 | 0.00 | 0.01 | 0.01 | 87 | 1011.1 |
| 20260506160030 | 62 | 10 | 11.3 | 24.3 | 0.00 | 0.01 | 0.01 | 88 | 1011.0 |
| 20260506155535 | 62 | 359 | 9.6 | 19.1 | 0.00 | 0.01 | 0.01 | 88 | 1011.0 |
| 20260506155035 | 62 | 11 | 17.4 | 24.3 | 0.00 | 0.01 | 0.01 | 88 | 1010.9 |
| 20260506154529 | 62 | 13 | 14.8 | 20.9 | 0.00 | 0.01 | 0.01 | 88 | 1010.9 |
| 20260506154036 | 60 | 12 | 11.3 | 22.6 | 0.00 | 0.01 | 0.01 | 88 | 1010.9 |
| 20260506153535 | 59 | 357 | 13.9 | 20.9 | 0.00 | 0.01 | 0.01 | 88 | 1010.9 |
| 20260506153028 | 59 | 11 | 11.3 | 17.4 | 0.00 | 0.01 | 0.01 | 88 | 1011.0 |
| 20260506152535 | 60 | 20 | 13.9 | 20.9 | 0.00 | 0.01 | 0.01 | 89 | 1011.1 |
| 20260506152035 | 61 | 2 | 9.6 | 17.4 | 0.00 | 0.01 | 0.01 | 89 | 1011.1 |
| 20260506151535 | 61 | 8 | 12.2 | 17.4 | 0.00 | 0.01 | 0.01 | 89 | 1010.9 |
| 20260506151036 | 61 | 5 | 13.0 | 19.1 | 0.00 | 0.01 | 0.01 | 89 | 1010.9 |
| 20260506150535 | 61 | 17 | 9.6 | 15.6 | 0.00 | 0.01 | 0.01 | 89 | 1010.9 |
| 20260506150035 | 63 | 4 | 7.8 | 13.9 | 0.00 | 0.01 | 0.01 | 89 | 1010.9 |
| 20260506145535 | 62 | 5 | 9.6 | 15.6 | 0.00 | 0.01 | 0.01 | 89 | 1010.9 |
| 20260506145036 | 61 | 359 | 9.6 | 15.6 | 0.00 | 0.01 | 0.01 | 89 | 1010.9 |
| 20260506144535 | 61 | 7 | 13.0 | 19.1 | 0.00 | 0.01 | 0.01 | 90 | 1010.8 |
| 20260506144035 | 61 | 26 | 12.2 | 17.4 | 0.00 | 0.01 | 0.01 | 90 | 1010.8 |
| 20260506143535 | 61 | 15 | 11.3 | 20.9 | 0.00 | 0.01 | 0.01 | 90 | 1010.8 |
| 20260506143035 | 61 | 24 | 7.8 | 15.6 | 0.00 | 0.01 | 0.01 | 90 | 1010.8 |
| 20260506142536 | 60 | 13 | 8.7 | 15.6 | 0.00 | 0.01 | 0.01 | 90 | 1010.8 |
| 20260506142035 | 60 | 18 | 14.8 | 19.1 | 0.00 | 0.01 | 0.01 | 91 | 1010.8 |
| 20260506141535 | 61 | 356 | 7.8 | 13.9 | 0.00 | 0.01 | 0.01 | 91 | 1010.8 |
| 20260506141035 | 60 | 2 | 9.6 | 13.9 | 0.00 | 0.01 | 0.01 | 91 | 1010.8 |
| 20260506140535 | 60 | 22 | 7.8 | 13.9 | 0.00 | 0.01 | 0.01 | 91 | 1010.8 |
| 20260506140034 | 60 | 32 | 8.7 | 15.6 | 0.00 | 0.01 | 0.01 | 91 | 1010.8 |
| 20260506135535 | 61 | 7 | 16.5 | 22.6 | 0.00 | 0.01 | 0.01 | 91 | 1010.9 |
| 20260506135036 | 61 | 20 | 7.8 | 12.2 | 0.00 | 0.01 | 0.01 | 91 | 1010.9 |
| 20260506134535 | 61 | 3 | 12.2 | 19.1 | 0.00 | 0.01 | 0.01 | 91 | 1010.8 |
| 20260506134036 | 61 | 341 | 11.3 | 15.6 | 0.00 | 0.01 | 0.01 | 91 | 1011.0 |
| 20260506133536 | 60 | 17 | 11.3 | 17.4 | 0.00 | 0.01 | 0.01 | 92 | 1011.1 |
| 20260506133035 | 60 | 33 | 8.7 | 13.9 | 0.00 | 0.01 | 0.01 | 92 | 1011.1 |
| 20260506132536 | 60 | 11 | 12.2 | 15.6 | 0.00 | 0.01 | 0.01 | 92 | 1011.1 |
| 20260506132035 | 60 | 359 | 5.2 | 8.7 | 0.00 | 0.01 | 0.01 | 92 | 1011.1 |
| 20260506131536 | 60 | 3 | 15.6 | 22.6 | 0.00 | 0.01 | 0.01 | 92 | 1011.1 |
| 20260506131035 | 59 | 4 | 5.2 | 8.7 | 0.00 | 0.01 | 0.01 | 92 | 1011.1 |
| 20260506130531 | 58 | 17 | 13.0 | 17.4 | 0.00 | 0.01 | 0.01 | 92 | 1011.1 |
| 20260506130035 | 58 | 359 | 4.3 | 8.7 | 0.00 | 0.01 | 0.01 | 92 | 1011.1 |
| 20260506125535 | 58 | 10 | 11.3 | 15.6 | 0.00 | 0.01 | 0.01 | 93 | 1011.0 |
| 20260506125035 | 57 | 355 | 2.6 | 8.7 | 0.00 | 0.01 | 0.01 | 93 | 1011.0 |
| 20260506124536 | 57 | 355 | 7.8 | 12.2 | 0.00 | 0.01 | 0.01 | 93 | 1011.1 |
| 20260506124035 | 57 | 3 | 11.3 | 13.9 | 0.00 | 0.01 | 0.01 | 93 | 1011.1 |
| 20260506123535 | 57 | 8 | 9.6 | 15.6 | 0.00 | 0.01 | 0.01 | 93 | 1011.0 |
| 20260506123035 | 57 | 1 | 6.1 | 13.9 | 0.00 | 0.01 | 0.01 | 93 | 1010.9 |
| 20260506122535 | 59 | 334 | 7.0 | 12.2 | 0.00 | 0.01 | 0.01 | 93 | 1010.9 |
| 20260506122028 | 59 | 11 | 7.8 | 12.2 | 0.00 | 0.01 | 0.01 | 93 | 1011.0 |
| 20260506121535 | 58 | 350 | 8.7 | 12.2 | 0.00 | 0.01 | 0.01 | 93 | 1011.0 |
| 20260506121035 | 58 | 10 | 10.4 | 13.9 | 0.00 | 0.01 | 0.01 | 93 | 1011.0 |
| 20260506120528 | 57 | 21 | 10.4 | 13.9 | 0.00 | 0.01 | 0.01 | 93 | 1011.0 |
| 20260506120035 | 57 | 14 | 7.0 | 12.2 | 0.00 | 0.01 | 0.01 | 93 | 1011.0 |
| 20260506115530 | 57 | 4 | 7.8 | 15.6 | 0.00 | 0.01 | 0.01 | 94 | 1011.0 |
| 20260506115036 | 57 | 14 | 10.4 | 15.6 | 0.00 | 0.01 | 0.01 | 94 | 1011.0 |
| 20260506114536 | 58 | 11 | 10.4 | 13.9 | 0.00 | 0.01 | 0.01 | 94 | 1011.1 |
| 20260506114036 | 58 | 31 | 7.8 | 10.4 | 0.00 | 0.01 | 0.01 | 94 | 1011.0 |
| 20260506113529 | 58 | 15 | 9.6 | 13.9 | 0.00 | 0.01 | 0.01 | 94 | 1011.0 |
| 20260506113035 | 57 | 352 | 7.8 | 12.2 | 0.00 | 0.01 | 0.01 | 94 | 1011.0 |
| 20260506112536 | 57 | 16 | 6.1 | 10.4 | 0.00 | 0.01 | 0.01 | 94 | 1011.0 |
| 20260506112028 | 57 | 354 | 13.0 | 17.4 | 0.00 | 0.01 | 0.01 | 94 | 1011.0 |
| 20260506111535 | 58 | 349 | 7.0 | 15.6 | 0.00 | 0.01 | 0.01 | 94 | 1011.1 |
| 20260506111035 | 58 | 25 | 12.2 | 17.4 | 0.00 | 0.01 | 0.01 | 94 | 1011.0 |
| 20260506110536 | 57 | 351 | 13.0 | 19.1 | 0.00 | 0.01 | 0.01 | 95 | 1011.1 |
| 20260506110036 | 57 | 10 | 7.0 | 12.2 | 0.00 | 0.01 | 0.01 | 95 | 1011.1 |
| 20260506105535 | 58 | 9 | 10.4 | 13.9 | 0.00 | 0.01 | 0.01 | 95 | 1011.1 |
| 20260506105035 | 57 | 19 | 10.4 | 19.1 | 0.00 | 0.01 | 0.01 | 95 | 1011.0 |
| 20260506104535 | 56 | 10 | 12.2 | 19.1 | 0.00 | 0.01 | 0.01 | 95 | 1011.0 |
| 20260506104035 | 56 | 350 | 8.7 | 12.2 | 0.00 | 0.01 | 0.01 | 95 | 1011.0 |
| 20260506103535 | 56 | 26 | 7.8 | 13.9 | 0.00 | 0.01 | 0.01 | 95 | 1011.0 |
| 20260506103040 | 55 | 0 | 8.7 | 17.4 | 0.00 | 0.01 | 0.01 | 95 | 1011.1 |
| 20260506102535 | 55 | 2 | 9.6 | 13.9 | 0.00 | 0.01 | 0.01 | 95 | 1011.3 |
| 20260506102036 | 55 | 340 | 5.2 | 8.7 | 0.00 | 0.01 | 0.01 | 95 | 1011.2 |
| 20260506101535 | 55 | 353 | 6.1 | 8.7 | 0.00 | 0.01 | 0.01 | 95 | 1011.1 |
| 20260506101036 | 54 | 347 | 7.8 | 10.4 | 0.00 | 0.01 | 0.01 | 95 | 1011.0 |
| 20260506100536 | 53 | 349 | 8.7 | 12.2 | 0.00 | 0.01 | 0.01 | 96 | 1011.0 |
| 20260506100035 | 53 | 2 | 10.4 | 15.6 | 0.00 | 0.01 | 0.01 | 96 | 1011.0 |
| 20260506095535 | 53 | 347 | 7.8 | 12.2 | 0.00 | 0.01 | 0.01 | 96 | 1011.0 |
| 20260506095035 | 52 | 354 | 4.3 | 7.0 | 0.00 | 0.01 | 0.01 | 96 | 1010.9 |
| 20260506094535 | 52 | 2 | 5.2 | 12.2 | 0.00 | 0.01 | 0.01 | 96 | 1010.9 |
| 20260506094036 | 52 | 350 | 5.2 | 8.7 | 0.00 | 0.01 | 0.01 | 96 | 1010.9 |
| 20260506093535 | 52 | 15 | 7.0 | 10.4 | 0.00 | 0.01 | 0.01 | 96 | 1010.9 |
| 20260506093044 | 51 | 0 | 3.5 | 7.0 | 0.00 | 0.01 | 0.01 | 96 | 1010.8 |
| 20260506092535 | 51 | 1 | 9.6 | 12.2 | 0.00 | 0.01 | 0.01 | 95 | 1010.9 |
| 20260506092036 | 51 | 4 | 5.2 | 8.7 | 0.00 | 0.01 | 0.01 | 95 | 1011.0 |
| 20260506091535 | 51 | 0 | 3.5 | 10.4 | 0.01 | 0.01 | 0.01 | 95 | 1011.0 |
| 20260506091035 | 50 | 14 | 8.7 | 13.9 | 0.01 | 0.01 | 0.01 | 95 | 1010.9 |
| 20260506090536 | 50 | 0 | 4.3 | 8.7 | 0.01 | 0.01 | 0.01 | 95 | 1010.9 |
| 20260506090036 | 50 | 352 | 7.8 | 12.2 | 0.01 | 0.01 | 0.01 | 95 | 1010.8 |
| 20260506085529 | 50 | 1 | 7.8 | 12.2 | 0.01 | 0.01 | 0.01 | 95 | 1010.8 |
| 20260506085040 | 50 | 1 | 2.6 | 8.7 | 0.01 | 0.01 | 0.01 | 95 | 1010.8 |
| 20260506084535 | 50 | 4 | 2.6 | 7.0 | 0.00 | 0.00 | 0.00 | 95 | 1010.8 |
| 20260506084035 | 49 | 26 | 9.6 | 15.6 | 0.00 | 0.00 | 0.00 | 95 | 1010.8 |
| 20260506083535 | 49 | 8 | 12.2 | 15.6 | 0.00 | 0.00 | 0.00 | 95 | 1010.7 |
| 20260506083036 | 49 | 358 | 10.4 | 17.4 | 0.00 | 0.00 | 0.00 | 94 | 1010.7 |
| 20260506082528 | 49 | 11 | 9.6 | 15.6 | 0.00 | 0.00 | 0.00 | 94 | 1010.6 |
| 20260506082035 | 49 | 22 | 11.3 | 15.6 | 0.00 | 0.00 | 0.00 | 94 | 1010.6 |
| 20260506081535 | 49 | 8 | 5.2 | 8.7 | 0.00 | 0.00 | 0.00 | 94 | 1010.6 |
| 20260506081035 | 50 | 7 | 8.7 | 12.2 | 0.00 | 0.00 | 0.00 | 94 | 1010.6 |
| 20260506080536 | 50 | 13 | 7.0 | 12.2 | 0.00 | 0.00 | 0.00 | 94 | 1010.6 |
| 20260506073035 | 49 | 3 | 9.6 | 15.6 | 0.00 | 0.00 | 0.00 | 93 | 1010.3 |
| 20260506072534 | 49 | 21 | 6.1 | 8.7 | 0.00 | 0.00 | 0.00 | 93 | 1010.3 |
| 20260506072028 | 50 | 17 | 7.8 | 12.2 | 0.00 | 0.00 | 0.00 | 93 | 1010.2 |
| 20260506071534 | 50 | 10 | 3.5 | 5.2 | 0.00 | 0.00 | 0.00 | 93 | 1010.2 |
| 20260506071028 | 50 | 2 | 7.0 | 10.4 | 0.00 | 0.00 | 0.00 | 93 | 1010.1 |
| 20260506070534 | 50 | 21 | 12.2 | 17.4 | 0.00 | 0.00 | 0.00 | 93 | 1010.1 |
| 20260506062035 | 50 | 14 | 8.7 | 13.9 | 0.00 | 0.00 | 0.00 | 92 | 1009.9 |
| 20260506061535 | 50 | 10 | 3.5 | 7.0 | 0.00 | 0.00 | 0.00 | 92 | 1009.9 |
| 20260506061035 | 50 | 355 | 6.1 | 8.7 | 0.00 | 0.00 | 0.00 | 92 | 1009.9 |
| 20260506060535 | 50 | 5 | 6.1 | 8.7 | 0.00 | 0.00 | 0.00 | 92 | 1009.9 |
| 20260506051035 | 48 | 4 | 5.2 | 10.4 | 0.00 | 0.00 | 0.00 | 92 | 1009.9 |
| 20260506050534 | 48 | 355 | 3.5 | 7.0 | 0.00 | 0.00 | 0.00 | 92 | 1010.0 |
| 20260506045035 | 48 | 0 | 5.2 | 10.4 | 0.00 | 0.00 | 0.00 | 92 | 1010.0 |
| 20260506044535 | 48 | 352 | 4.3 | 7.0 | 0.00 | 0.00 | 0.00 | 92 | 1010.0 |
| 20260506044034 | 47 | 2 | 2.6 | 5.2 | 0.00 | 0.00 | 0.00 | 92 | 1010.0 |
| 20260506043535 | 47 | 3 | 3.5 | 5.2 | 0.00 | 0.00 | 0.00 | 92 | 1009.9 |
| 20260506043035 | 47 | 352 | 5.2 | 7.0 | 0.00 | 0.00 | 0.00 | 92 | 1009.9 |
| 20260506042534 | 47 | 359 | 4.3 | 7.0 | 0.00 | 0.00 | 0.00 | 92 | 1009.9 |
| 20260506042035 | 47 | 357 | 6.1 | 10.4 | 0.00 | 0.00 | 0.00 | 92 | 1009.9 |
| 20260506041532 | 47 | 356 | 3.5 | 8.7 | 0.00 | 0.00 | 0.00 | 92 | 1009.9 |
| 20260506041033 | 47 | 0 | 4.3 | 7.0 | 0.00 | 0.00 | 0.00 | 92 | 1009.9 |
| 20260506040533 | 47 | 358 | 4.3 | 8.7 | 0.00 | 0.00 | 0.00 | 92 | 1009.9 |
| 20260506040027 | 47 | 359 | 5.2 | 8.7 | 0.00 | 0.00 | 0.00 | 92 | 1010.0 |
| 20260506035533 | 47 | 359 | 2.6 | 5.2 | 0.00 | 0.00 | 0.00 | 92 | 1010.0 |
| 20260506035033 | 47 | 9 | 4.3 | 7.0 | 0.00 | 0.00 | 0.00 | 92 | 1010.0 |
| 20260506034526 | 47 | 13 | 4.3 | 7.0 | 0.00 | 0.00 | 0.00 | 92 | 1010.0 |
| 20260506034034 | 47 | 4 | 5.2 | 12.2 | 0.00 | 0.00 | 0.00 | 92 | 1010.1 |
| 20260506033533 | 47 | 0 | 4.3 | 7.0 | 0.00 | 0.00 | 0.00 | 92 | 1010.0 |
| 20260506033027 | 47 | 6 | 5.2 | 7.0 | 0.00 | 0.00 | 0.00 | 92 | 1010.0 |
| 20260506032533 | 47 | 357 | 3.5 | 7.0 | 0.00 | 0.00 | 0.00 | 92 | 1010.0 |
| 20260506032033 | 47 | 10 | 3.5 | 7.0 | 0.00 | 0.00 | 0.00 | 92 | 1010.0 |
| 20260506031533 | 47 | 0 | 4.3 | 7.0 | 0.00 | 0.00 | 0.00 | 92 | 1010.1 |
| 20260506031033 | 47 | 0 | 4.3 | 7.0 | 0.00 | 0.00 | 0.00 | 92 | 1010.1 |
| 20260506030533 | 47 | 5 | 5.2 | 7.0 | 0.00 | 0.00 | 0.00 | 92 | 1010.2 |
| 20260506030034 | 47 | 359 | 6.1 | 8.7 | 0.00 | 0.00 | 0.00 | 92 | 1010.2 |
| 20260506025533 | 47 | 357 | 4.3 | 8.7 | 0.00 | 0.00 | 0.00 | 92 | 1010.3 |
| 20260506025033 | 47 | 0 | 5.2 | 10.4 | 0.00 | 0.00 | 0.00 | 92 | 1010.3 |
| 20260506024533 | 47 | 350 | 4.3 | 8.7 | 0.00 | 0.00 | 0.00 | 92 | 1010.3 |
| 20260506024033 | 47 | 347 | 4.3 | 8.7 | 0.00 | 0.00 | 0.00 | 92 | 1010.3 |
| 20260506023533 | 47 | 5 | 5.2 | 10.4 | 0.00 | 0.00 | 0.00 | 92 | 1010.3 |
| 20260506023033 | 47 | 13 | 7.0 | 12.2 | 0.00 | 0.00 | 0.00 | 92 | 1010.3 |
| 20260506022533 | 47 | 11 | 7.8 | 12.2 | 0.00 | 0.00 | 0.00 | 92 | 1010.3 |
| 20260506022033 | 48 | 13 | 7.0 | 12.2 | 0.00 | 0.00 | 0.00 | 92 | 1010.3 |
| 20260506021533 | 48 | 13 | 9.6 | 15.6 | 0.00 | 0.00 | 0.00 | 92 | 1010.3 |
| 20260506021033 | 48 | 22 | 7.8 | 13.9 | 0.00 | 0.00 | 0.00 | 92 | 1010.3 |
| 20260506020533 | 48 | 5 | 7.0 | 10.4 | 0.00 | 0.00 | 0.00 | 92 | 1010.4 |
| 20260506020027 | 48 | 13 | 7.0 | 12.2 | 0.00 | 0.00 | 0.00 | 92 | 1010.4 |
| 20260506015533 | 48 | 14 | 8.7 | 12.2 | 0.00 | 0.00 | 0.00 | 92 | 1010.4 |
| 20260506015033 | 48 | 9 | 5.2 | 8.7 | 0.00 | 0.00 | 0.00 | 92 | 1010.4 |
| 20260506014534 | 48 | 12 | 7.0 | 12.2 | 0.00 | 0.00 | 0.00 | 92 | 1010.4 |
| 20260506014033 | 48 | 13 | 7.0 | 8.7 | 0.00 | 0.00 | 0.00 | 92 | 1010.5 |
| 20260506013533 | 48 | 5 | 7.0 | 10.4 | 0.00 | 0.00 | 0.00 | 92 | 1010.5 |
| 20260506013033 | 48 | 8 | 7.8 | 12.2 | 0.00 | 0.00 | 0.00 | 92 | 1010.5 |
| 20260506012537 | 48 | 351 | 5.2 | 12.2 | 0.00 | 0.00 | 0.00 | 92 | 1010.4 |
| 20260506012033 | 48 | 357 | 4.3 | 10.4 | 0.00 | 0.00 | 0.00 | 92 | 1010.4 |
| 20260506011533 | 48 | 26 | 6.1 | 8.7 | 0.00 | 0.00 | 0.00 | 92 | 1010.4 |
| 20260506011033 | 48 | 8 | 7.8 | 10.4 | 0.00 | 0.00 | 0.00 | 92 | 1010.4 |
| 20260506010533 | 49 | 14 | 7.0 | 10.4 | 0.00 | 0.00 | 0.00 | 92 | 1010.3 |
| 20260506010033 | 49 | 18 | 11.3 | 15.6 | 0.00 | 0.00 | 0.00 | 92 | 1010.4 |
| 20260506005526 | 49 | 5 | 5.2 | 8.7 | 0.00 | 0.00 | 0.00 | 92 | 1010.4 |
| 20260506005031 | 49 | 20 | 7.0 | 12.2 | 0.00 | 0.00 | 0.00 | 92 | 1010.5 |
| 20260506004533 | 49 | 4 | 6.1 | 10.4 | 0.00 | 0.00 | 0.00 | 92 | 1010.5 |
| 20260506004034 | 49 | 23 | 8.7 | 12.2 | 0.00 | 0.00 | 0.00 | 92 | 1010.5 |
| 20260506003527 | 49 | 8 | 6.1 | 8.7 | 0.00 | 0.00 | 0.00 | 92 | 1010.6 |
| 20260506003033 | 49 | 17 | 7.8 | 10.4 | 0.00 | 0.00 | 0.00 | 92 | 1010.6 |
| 20260506002534 | 49 | 4 | 7.0 | 10.4 | 0.00 | 0.00 | 0.00 | 92 | 1010.6 |
| 20260506002027 | 49 | 24 | 7.8 | 12.2 | 0.00 | 0.00 | 0.00 | 92 | 1010.7 |
| 20260506001533 | 49 | 10 | 6.1 | 10.4 | 0.00 | 0.00 | 0.00 | 92 | 1010.7 |
| 20260506001033 | 50 | 12 | 7.8 | 12.2 | 0.00 | 0.00 | 0.00 | 92 | 1010.7 |
| 20260506000526 | 50 | 15 | 7.0 | 10.4 | 0.00 | 0.00 | 0.00 | 92 | 1010.7 |
| 20260506000032 | 50 | 358 | 0.0 | 1.7 | 0.00 | 0.00 | 0.00 | 92 | 1010.7 |
| 20260505235528 | 50 | 23 | 7.8 | 12.2 | 0.00 | 0.00 | 0.00 | 92 | 1010.7 |
| 20260505235031 | 50 | 22 | 4.3 | 10.4 | 0.00 | 0.00 | 0.00 | 92 | 1010.7 |
| 20260505234535 | 50 | 37 | 6.1 | 10.4 | 0.00 | 0.00 | 0.00 | 92 | 1010.7 |
| 20260505234030 | 50 | 29 | 11.3 | 17.4 | 0.00 | 0.00 | 0.00 | 92 | 1010.7 |
| 20260505233529 | 50 | 23 | 6.1 | 10.4 | 0.00 | 0.00 | 0.00 | 92 | 1010.7 |
| 20260505233034 | 51 | 35 | 6.1 | 8.7 | 0.00 | 0.00 | 0.00 | 92 | 1010.7 |
| 20260505232535 | 51 | 37 | 7.8 | 15.6 | 0.00 | 0.00 | 0.00 | 92 | 1010.7 |
| 20260505232028 | 51 | 38 | 7.8 | 12.2 | 0.00 | 0.00 | 0.00 | 92 | 1010.7 |
| 20260505231535 | 51 | 24 | 7.0 | 12.2 | 0.00 | 0.00 | 0.00 | 92 | 1010.7 |
| 20260505231028 | 51 | 14 | 6.1 | 15.6 | 0.00 | 0.00 | 0.00 | 92 | 1010.7 |
| 20260505230534 | 51 | 39 | 4.3 | 7.0 | 0.00 | 0.00 | 0.00 | 92 | 1010.8 |
| 20260505230034 | 51 | 33 | 6.1 | 10.4 | 0.00 | 0.00 | 0.00 | 92 | 1010.8 |
| 20260505225531 | 51 | 38 | 9.6 | 15.6 | 0.00 | 0.00 | 0.00 | 92 | 1010.8 |
| 20260505225035 | 51 | 16 | 1.7 | 5.2 | 0.00 | 0.00 | 0.00 | 92 | 1010.8 |
| 20260505224535 | 51 | 40 | 4.3 | 12.2 | 0.00 | 0.00 | 0.00 | 92 | 1010.8 |
| 20260505224039 | 51 | 21 | 3.5 | 7.0 | 0.00 | 0.00 | 0.00 | 92 | 1010.8 |
| 20260505223538 | 51 | 13 | 0.0 | 1.7 | 0.00 | 0.00 | 0.00 | 92 | 1010.8 |
| 20260505223039 | 51 | 26 | 0.0 | 1.7 | 0.00 | 0.00 | 0.00 | 92 | 1010.8 |
| 20260505222539 | 51 | 29 | 2.6 | 7.0 | 0.00 | 0.00 | 0.00 | 92 | 1010.8 |
| 20260505222039 | 51 | 42 | 1.7 | 7.0 | 0.00 | 0.00 | 0.00 | 92 | 1010.8 |
| 20260505221539 | 52 | 61 | 4.3 | 8.7 | 0.00 | 0.00 | 0.00 | 92 | 1010.8 |
| 20260505221039 | 52 | 0 | 2.6 | 8.7 | 0.00 | 0.00 | 0.00 | 92 | 1010.9 |
| 20260505220529 | 52 | 43 | 5.2 | 7.0 | 0.00 | 0.00 | 0.00 | 92 | 1010.9 |
| 20260505220031 | 52 | 36 | 3.5 | 12.2 | 0.00 | 0.00 | 0.00 | 92 | 1010.9 |
| 20260505215535 | 52 | 33 | 6.1 | 8.7 | 0.00 | 0.00 | 0.00 | 92 | 1010.9 |
| 20260505215035 | 52 | 39 | 5.2 | 12.2 | 0.00 | 0.00 | 0.00 | 92 | 1010.9 |
| 20260505214535 | 52 | 37 | 7.0 | 12.2 | 0.00 | 0.00 | 0.00 | 92 | 1010.9 |
| 20260505214034 | 52 | 21 | 2.6 | 5.2 | 0.00 | 0.00 | 0.00 | 92 | 1010.9 |
| 20260505213535 | 52 | 22 | 6.1 | 8.7 | 0.00 | 0.00 | 0.00 | 92 | 1010.9 |
| 20260505213043 | 52 | 16 | 5.2 | 8.7 | 0.00 | 0.00 | 0.00 | 92 | 1010.9 |
| 20260505212535 | 52 | 30 | 7.8 | 12.2 | 0.00 | 0.00 | 0.00 | 92 | 1011.0 |
| 20260505212035 | 52 | 17 | 5.2 | 8.7 | 0.00 | 0.00 | 0.00 | 92 | 1010.9 |
| 20260505211535 | 52 | 31 | 7.0 | 10.4 | 0.00 | 0.00 | 0.00 | 92 | 1011.0 |
| 20260505211035 | 52 | 26 | 7.8 | 13.9 | 0.00 | 0.00 | 0.00 | 92 | 1011.0 |
| 20260505210535 | 52 | 27 | 9.6 | 13.9 | 0.00 | 0.00 | 0.00 | 92 | 1010.9 |
| 20260505210035 | 52 | 16 | 9.6 | 15.6 | 0.00 | 0.00 | 0.00 | 92 | 1010.9 |
| 20260505205535 | 52 | 24 | 6.1 | 13.9 | 0.00 | 0.00 | 0.00 | 92 | 1011.0 |
| 20260505205035 | 52 | 31 | 11.3 | 17.4 | 0.00 | 0.00 | 0.00 | 92 | 1011.0 |
| 20260505204535 | 53 | 21 | 13.9 | 20.9 | 0.00 | 0.00 | 0.00 | 92 | 1011.0 |
| 20260505204036 | 53 | 25 | 10.4 | 15.6 | 0.00 | 0.00 | 0.00 | 92 | 1010.9 |
| 20260505203535 | 53 | 28 | 9.6 | 13.9 | 0.00 | 0.00 | 0.00 | 92 | 1010.9 |
| 20260505203035 | 53 | 18 | 8.7 | 12.2 | 0.00 | 0.00 | 0.00 | 92 | 1010.9 |
| 20260505202535 | 53 | 11 | 10.4 | 17.4 | 0.00 | 0.00 | 0.00 | 92 | 1010.9 |
| 20260505202036 | 53 | 25 | 9.6 | 12.2 | 0.00 | 0.00 | 0.00 | 92 | 1010.9 |
| 20260505201535 | 53 | 19 | 7.8 | 10.4 | 0.00 | 0.00 | 0.00 | 92 | 1010.9 |
| 20260505201035 | 53 | 17 | 7.8 | 12.2 | 0.00 | 0.00 | 0.00 | 92 | 1010.9 |
| 20260505200535 | 53 | 29 | 7.0 | 10.4 | 0.00 | 0.00 | 0.00 | 92 | 1010.8 |
| 20260505200034 | 53 | 22 | 10.4 | 17.4 | 0.00 | 0.00 | 0.00 | 92 | 1010.8 |
| 20260505195531 | 53 | 14 | 10.4 | 17.4 | 0.00 | 0.00 | 0.00 | 92 | 1010.8 |
| 20260505195035 | 53 | 27 | 9.6 | 15.6 | 0.00 | 0.00 | 0.00 | 92 | 1010.7 |
| 20260505194535 | 53 | 14 | 6.1 | 10.4 | 0.00 | 0.00 | 0.00 | 92 | 1010.7 |
| 20260505194029 | 53 | 20 | 7.8 | 15.6 | 0.00 | 0.00 | 0.00 | 92 | 1010.6 |
| 20260505193535 | 54 | 20 | 6.1 | 10.4 | 0.00 | 0.00 | 0.00 | 92 | 1010.6 |
| 20260505193035 | 54 | 0 | 7.0 | 12.2 | 0.00 | 0.00 | 0.00 | 92 | 1010.5 |
| 20260505192528 | 54 | 14 | 7.8 | 12.2 | 0.00 | 0.00 | 0.00 | 92 | 1010.5 |
| 20260505192035 | 54 | 21 | 12.2 | 17.4 | 0.00 | 0.00 | 0.00 | 92 | 1010.5 |
| 20260505191535 | 54 | 22 | 9.6 | 15.6 | 0.00 | 0.00 | 0.00 | 92 | 1010.4 |
| 20260505191029 | 54 | 21 | 8.7 | 15.6 | 0.00 | 0.00 | 0.00 | 92 | 1010.4 |
| 20260505190535 | 55 | 17 | 8.7 | 13.9 | 0.00 | 0.00 | 0.00 | 92 | 1010.3 |
| 20260505190036 | 55 | 26 | 11.3 | 17.4 | 0.00 | 0.00 | 0.00 | 92 | 1010.4 |
| 20260505185529 | 55 | 22 | 9.6 | 13.9 | 0.00 | 0.00 | 0.00 | 92 | 1010.4 |